Starlink 1686

operational
NORAD ID: 46328 Int'l Des: 2020-062 Owner: SPXS Country: US Constellation: starlink
LEOCIRCULARSTARLINK_TYPE

About Starlink 1686

Description loading...

Live Position

Loading 3D Globe...

Upcoming Passes

Altitude History

Altitude vs Time

uPlot chart will show altitude changes over time

Two-Line Element Set

1 46328U 20062D 25257.43503816 .00001160 00000-0 96781-4 0 9997
2 46328 53.0555 67.8571 0001267 84.9900 275.1234 15.06391596278026
Epoch: Sep 14, 2025 • Age: 19 hours

Current Status

Altitude 547.8 km
Velocity 7.59 km/s
Sub-Earth Point 2.29°N, 11.87°W
Launch Date Sep 3, 2020
Age 5 years
Type internet

Technical Details

Classification Payload
Mass 260.00 kg
Dry Mass 248.00 kg
Total Mass 260.00 kg
Length 0.20 m
Diameter 2.80 m
Span 9.00 m
Shape Box + pan
Manufacturer SPXS
Bus Type Starlink
Phase Status In Orbit
Owner/State SPXS/US

Large Constellations

Loading constellations...